When you browse on this site, cookies collect data to enhance your experience and personalize the content and advertising you see.
Visit our Privacy Policy to learn more. By continuing to use the site, you agree to this use of cookies and data.
  • în România
  • Lista ţărilor
  • Pe 7 zile
  • Temperatura apei
  • Hartă satelitară
  • Meteo pe hartă
  • Widget-uri
  • user-avatar
    Intrare

    Meteo pe oră la San Luis

    Astăzi, 24 Iunie, Luni

    Timp Temperatura Precipitaţii Vânt Presiune Umiditate
    00:00 +11°C° 0 mm 4 m/s 695 mmHg 80%
    01:00 +11°C° 0 mm 3 m/s 695 mmHg 81%
    02:00 +11°C° 0 mm 3 m/s 694 mmHg 80%
    03:00 +11°C° 0 mm 3 m/s 694 mmHg 81%
    04:00 +12°C° 0 mm 2 m/s 693 mmHg 82%
    05:00 +10°C° 0 mm 2 m/s 692 mmHg 83%
    06:00 +10°C° 0 mm 2 m/s 692 mmHg 83%
    07:00 +10°C° 0 mm 2 m/s 692 mmHg 83%
    08:00 +10°C° 0 mm 2 m/s 691 mmHg 83%
    09:00 +13°C° 0 mm 2 m/s 691 mmHg 78%
    10:00 +14°C° 0 mm 2 m/s 691 mmHg 72%
    11:00 +16°C° 0 mm 3 m/s 690 mmHg 66%
    12:00 +16°C° 0 mm 3 m/s 690 mmHg 65%
    13:00 +17°C° 0 mm 3 m/s 689 mmHg 64%
    14:00 +17°C° 0 mm 4 m/s 689 mmHg 63%
    15:00 +15°C° 0 mm 4 m/s 689 mmHg 60%
    16:00 +15°C° 0 mm 4 m/s 688 mmHg 57%
    17:00 +14°C° 0 mm 4 m/s 688 mmHg 54%
    18:00 +14°C° 0 mm 4 m/s 689 mmHg 54%
    19:00 +13°C° 0 mm 4 m/s 690 mmHg 54%
    20:00 +12°C° 0 mm 4 m/s 691 mmHg 54%
    21:00 +10°C° 0 mm 7 m/s 692 mmHg 46%
    22:00 +8°C° 0 mm 10 m/s 693 mmHg 38%
    23:00 +5°C° 0 mm 13 m/s 694 mmHg 29%

    Mâine, 25 Iunie, Marţi

    Timp Temperatura Precipitaţii Vânt Presiune Umiditate
    00:00 +4°C° 0 mm 12 m/s 695 mmHg 31%
    01:00 +3°C° 0 mm 11 m/s 696 mmHg 32%
    02:00 +2°C° 0 mm 9 m/s 697 mmHg 33%
    03:00 +2°C° 0 mm 9 m/s 698 mmHg 34%
    04:00 +1°C° 0 mm 8 m/s 698 mmHg 35%
    05:00 +2°C° 0 mm 7 m/s 698 mmHg 36%
    06:00 +2°C° 0 mm 7 m/s 699 mmHg 37%
    07:00 0°C° 0 mm 7 m/s 700 mmHg 37%
    08:00 +1°C° 0 mm 6 m/s 700 mmHg 38%
    09:00 +3°C° 0 mm 7 m/s 701 mmHg 32%
    10:00 +5°C° 0 mm 7 m/s 701 mmHg 27%
    11:00 +6°C° 0 mm 8 m/s 701 mmHg 21%
    12:00 +8°C° 0 mm 6 m/s 701 mmHg 21%
    13:00 +9°C° 0 mm 5 m/s 701 mmHg 21%
    14:00 +10°C° 0 mm 4 m/s 700 mmHg 21%
    15:00 +10°C° 0 mm 3 m/s 700 mmHg 23%
    16:00 +9°C° 0 mm 2 m/s 699 mmHg 26%
    17:00 +9°C° 0 mm 1 m/s 699 mmHg 28%
    18:00 +7°C° 0 mm 2 m/s 699 mmHg 28%
    19:00 +7°C° 0 mm 3 m/s 699 mmHg 29%
    20:00 +5°C° 0 mm 3 m/s 699 mmHg 30%
    21:00 +4°C° 0 mm 3 m/s 699 mmHg 30%
    22:00 +4°C° 0 mm 4 m/s 699 mmHg 30%
    23:00 +4°C° 0 mm 4 m/s 698 mmHg 30%

    Poimâine, 26 Iunie, Miercuri

    Timp Temperatura Precipitaţii Vânt Presiune Umiditate
    00:00 +4°C° 0 mm 4 m/s 698 mmHg 30%
    01:00 +3°C° 0 mm 4 m/s 697 mmHg 30%
    02:00 +3°C° 0 mm 3 m/s 697 mmHg 30%
    03:00 +3°C° 0 mm 3 m/s 696 mmHg 29%
    04:00 +3°C° 0 mm 3 m/s 696 mmHg 28%
    05:00 +3°C° 0 mm 3 m/s 695 mmHg 27%
    06:00 +3°C° 0 mm 3 m/s 695 mmHg 28%
    07:00 +3°C° 0 mm 4 m/s 695 mmHg 30%
    08:00 +3°C° 0 mm 4 m/s 695 mmHg 31%
    09:00 +4°C° 0 mm 6 m/s 695 mmHg 28%
    10:00 +6°C° 0 mm 8 m/s 695 mmHg 26%
    11:00 +8°C° 0 mm 9 m/s 695 mmHg 24%
    12:00 +10°C° 0 mm 9 m/s 694 mmHg 23%
    13:00 +11°C° 0 mm 9 m/s 693 mmHg 23%
    14:00 +11°C° 0 mm 9 m/s 693 mmHg 23%
    15:00 +11°C° 0 mm 8 m/s 692 mmHg 25%
    16:00 +10°C° 0 mm 7 m/s 692 mmHg 27%
    17:00 +9°C° 0 mm 6 m/s 691 mmHg 28%
    18:00 +8°C° 0 mm 6 m/s 692 mmHg 29%
    19:00 +7°C° 0 mm 6 m/s 692 mmHg 30%
    20:00 +6°C° 0 mm 5 m/s 692 mmHg 31%
    21:00 +5°C° 0 mm 6 m/s 692 mmHg 31%
    22:00 +5°C° 0 mm 6 m/s 692 mmHg 31%
    23:00 +5°C° 0 mm 7 m/s 691 mmHg 31%

    27 Iunie, Joi

    Timp Temperatura Precipitaţii Vânt Presiune Umiditate
    00:00 +5°C° 0 mm 7 m/s 691 mmHg 31%
    01:00 +5°C° 0 mm 7 m/s 691 mmHg 32%
    02:00 +5°C° 0 mm 7 m/s 691 mmHg 32%
    03:00 +5°C° 0 mm 7 m/s 691 mmHg 33%
    04:00 +5°C° 0 mm 7 m/s 690 mmHg 34%
    05:00 +5°C° 0 mm 6 m/s 690 mmHg 34%
    06:00 +5°C° 0 mm 6 m/s 690 mmHg 36%
    07:00 +6°C° 0 mm 5 m/s 690 mmHg 37%
    08:00 +6°C° 0 mm 5 m/s 690 mmHg 38%
    09:00 +8°C° 0 mm 5 m/s 690 mmHg 36%
    10:00 +10°C° 0 mm 6 m/s 690 mmHg 33%
    11:00 +13°C° 0 mm 6 m/s 691 mmHg 31%
    12:00 +14°C° 0 mm 6 m/s 690 mmHg 30%
    13:00 +15°C° 0 mm 6 m/s 689 mmHg 29%
    14:00 +15°C° 0 mm 6 m/s 689 mmHg 29%
    15:00 +15°C° 0 mm 5 m/s 688 mmHg 32%
    16:00 +14°C° 0 mm 4 m/s 688 mmHg 35%
    17:00 +13°C° 0 mm 3 m/s 687 mmHg 39%
    18:00 +12°C° 0 mm 3 m/s 687 mmHg 42%
    19:00 +10°C° 0 mm 3 m/s 687 mmHg 45%
    20:00 +9°C° 0 mm 3 m/s 687 mmHg 48%
    21:00 +9°C° 0 mm 3 m/s 687 mmHg 48%
    22:00 +9°C° 0 mm 3 m/s 687 mmHg 49%
    23:00 +7°C° 0 mm 4 m/s 687 mmHg 50%

    28 Iunie, Vineri

    Timp Temperatura Precipitaţii Vânt Presiune Umiditate
    00:00 +7°C° 0 mm 4 m/s 686 mmHg 52%
    01:00 +7°C° 0 mm 4 m/s 686 mmHg 53%
    02:00 +7°C° 0 mm 4 m/s 686 mmHg 54%
    03:00 +7°C° 0 mm 4 m/s 686 mmHg 56%
    04:00 +7°C° 0 mm 4 m/s 686 mmHg 57%
    05:00 +7°C° 0 mm 4 m/s 686 mmHg 59%
    06:00 +7°C° 0 mm 4 m/s 686 mmHg 59%
    07:00 +7°C° 0 mm 4 m/s 687 mmHg 59%
    08:00 +7°C° 0 mm 4 m/s 687 mmHg 59%
    09:00 +11°C° 0 mm 4 m/s 687 mmHg 52%
    10:00 +13°C° 0 mm 3 m/s 688 mmHg 46%
    11:00 +16°C° 0 mm 3 m/s 688 mmHg 40%
    12:00 +17°C° 0 mm 4 m/s 688 mmHg 40%
    13:00 +17°C° 0 mm 4 m/s 688 mmHg 40%
    14:00 +17°C° 0 mm 5 m/s 688 mmHg 40%
    15:00 +15°C° 0 mm 6 m/s 688 mmHg 43%
    16:00 +12°C° 0 mm 7 m/s 689 mmHg 46%
    17:00 +11°C° 0 mm 8 m/s 689 mmHg 49%
    18:00 +9°C° 0 mm 8 m/s 691 mmHg 53%
    19:00 +6°C° 0 mm 7 m/s 692 mmHg 58%
    20:00 +5°C° 0 mm 7 m/s 693 mmHg 63%
    21:00 +4°C° 0 mm 6 m/s 694 mmHg 62%
    22:00 +5°C° 0 mm 5 m/s 695 mmHg 62%
    23:00 +5°C° 0 mm 4 m/s 695 mmHg 61%

    29 Iunie, Sâmbătă

    Timp Temperatura Precipitaţii Vânt Presiune Umiditate
    00:00 +4°C° 0 mm 4 m/s 696 mmHg 61%
    01:00 +4°C° 0 mm 4 m/s 697 mmHg 60%
    02:00 +3°C° 0 mm 4 m/s 697 mmHg 60%
    03:00 +3°C° 0 mm 4 m/s 697 mmHg 60%
    04:00 +2°C° 0 mm 3 m/s 698 mmHg 60%
    05:00 +2°C° 0 mm 3 m/s 698 mmHg 61%
    06:00 +1°C° 0 mm 3 m/s 699 mmHg 57%
    07:00 +1°C° 0 mm 3 m/s 700 mmHg 54%
    08:00 0°C° 0 mm 4 m/s 700 mmHg 51%
    09:00 +1°C° 0 mm 4 m/s 701 mmHg 45%
    10:00 +3°C° 0 mm 5 m/s 702 mmHg 39%
    11:00 +4°C° 0 mm 6 m/s 703 mmHg 33%
    12:00 +5°C° 0 mm 6 m/s 702 mmHg 31%
    13:00 +5°C° 0 mm 6 m/s 702 mmHg 28%
    14:00 +7°C° 0 mm 5 m/s 702 mmHg 26%
    15:00 +6°C° 0 mm 5 m/s 702 mmHg 26%
    16:00 +6°C° 0 mm 5 m/s 702 mmHg 26%
    17:00 +5°C° 0 mm 4 m/s 702 mmHg 27%
    18:00 +4°C° 0 mm 4 m/s 702 mmHg 29%
    19:00 +3°C° 0 mm 4 m/s 703 mmHg 31%
    20:00 +1°C° 0 mm 4 m/s 703 mmHg 34%
    21:00 +1°C° 0 mm 4 m/s 703 mmHg 33%
    22:00 0°C° 0 mm 4 m/s 703 mmHg 33%
    23:00 0°C° 0 mm 4 m/s 703 mmHg 33%
    Arată mai mult